COSMOS 2251 DEB

Satellite information

Favourite Embed

Satellite Type and Status

DEBRISIN ORBIT

Key statistics

Satellite COSMOS 2251 DEB at a glance.

Uptime

11709

Days in orbit

Revolutions

≈ 14.6

Per day

Orbit

LEO

Low Earth Orbit

Inclination

74.0

Latest

Satellite identification and parameters

Extended collection of information and parameters for COSMOS 2251 DEB.

Object identification

Identified? True

Debris? True

Object name: COSMOS 2251 DEB

International designator: 1993-036BDA

Object number (NORAD): 36540

Object ID (CCSDS): 36540

Country: COMMONWEALTH OF INDEPENDENT STATES (CIS)

Current information (Y/N): Y

RCS size: SMALL

Orbital parameters

Period: 98.87 minutes

Inclination: 74.0294 deg

SMA: 7082.758 km

Apoapsis: 717.371 km

Periapsis: 691.875 km

RAAN: 128.8372 deg

Eccentricy: 0.0017999

Argument of periapsis: 240.8677 deg

Mean anomaly: 119.0685 deg

Mean motion: 14.56461979 rev/day

Mean motion (dot): 0.00003204 rev/day2

B* drag term: 0.00072561 1/REarth

Two-line elements (TLE)

Creation date: July 3, 2025, 5:26 p.m.

Reference frame: TEME

Reference center: EARTH

Epoch: July 3, 2025, 12:46 p.m. UTC

TLE line 0: 0 COSMOS 2251 DEB

TLE line 1: 1 36540U 93036BDA 25184.53218700 .00003204 00000-0 72561-3 0 9998

TLE line 2: 2 36540 74.0294 128.8372 0017999 240.8677 119.0685 14.56461979836476

Live tracking on map

Real-time ground track for satellite COSMOS 2251 DEB.

In-orbit conjunctions

A list of the most updated potential collisions computed for object COSMOS 2251 DEB.

Target Orbit TCA Probability of collision Miss distance Type
FENGYUN 1C DEB SSO 2025-02-18 20:07:08 0.0001084816 106.0 (m) DEBRIS
CZ-4 DEB SSO 2024-11-09 19:27:18 0.0002527399 760.0 (m) DEBRIS
KITSAT 3 SSO 2024-08-04 01:07:30 0.0002688077 495.0 (m) PAYLOAD

Associated space launch

Military communications satellite. Destroyed in a collision with Iridium 33.

COSMOS 2251 DEB was lifted into orbit during the mission ‘Kosmos-3M | Strela-2M 51’, on board a Kosmos-3M space rocket.

The launch took place on June 16, 1993, 4:17 a.m. from 132/1 (132L).

For more information about the launch, click the button.

Launch to space Kosmos-3M | Strela-2M 51
Kosmos-3M | Strela-2M 51

Agency: N/A

Status: Launch Successful

Launch date: June 16, 1993, 4:17 a.m. UTC

Rocket: Kosmos-3M

Launch pad: 132/1 (132L)

Location: Plesetsk Cosmodrome, Russian Federation

...

Latest news about this satellite

There are no fresh news available about this satellite. Check back as we update our databases every day.


Newsletter sign-up

Weekly statistics, charts and insights to help you stay on top of the space industry.